OBJECT AX, 61780

Orbit data source: Space-Track

You're viewing an Uncataloged Satellite

Recently launched and/or uncataloged satellites may have evolving metadata. Metadata may include but not limited to: Owner, Maufacturer, Bus, Motor, and Mission.

OBJECT AX, 61780 is a satellite in SSO that was launched on Mon, 04 Nov 2024 UTC via a SOYUZ-2-1B launch vehicle from the Vostochny Cosmodrome (VOSTO). Unknown objects in Earth's orbit typically refer to objects detected orbiting the Earth but have not yet been identified or cataloged. These objects could be anything from previously untracked satellites, spent rocket stages, debris from satellite collisions, or even natural meteoroids temporarily captured by Earth's gravity.

Loading next visibility...
Identifier
61780, 2024-199AX
Orbit
SSO
Country
Flag of TBDTBD
Related business
Manufacturer
Sputniks
Mission
Operational Commercial Communications
Bus & Motor
CUBESAT 3U?, Unknown motor
Mass
3 kg wet, 3 kg dry
Launch date (UTC)
2024-11-04 (1 year ago)
Launch vehicle
SOYUZ-2-1B
Launch site
Vostochny Cosmodrome (VOSTO)
Object type
Unknown
Shape & HBR
Box, 0.1 m
Radar Cross Section
0.035 m², Small (<0.1 m²)

Expand to show TLE details & history
Last TLE update: 7 hours ago

TLE from 7 hours ago
0 OBJECT AX
1 61780U 24199AX  25295.21198716  .00031009  00000-0  78734-3 0  9990
2 61780  97.3274 163.3310 0013868  79.9731 280.3079 15.39503811 97602
Epoch: 2025-10-22T05:05Z
TLE epoch observation values (Epoch: 2025-10-22T05:05:15.690Z)
Latitude
-0.00004°
Longitude
56.12679°
Altitude
449.013 km
Speed
7.644 km/s
True Right ascension
10h 53m 19s
True Declination
0° 00' 00"
Sunlit
Object was in daylight at epoch
Visualization orbit readout
Latitude
Unknown
Longitude
Unknown
Altitude
Unknown
Speed
Unknown
Apparent Right ascension
Unknown
Apparent Declination
Unknown
Sunlit
N/A
Visualization observer readout
Local Sidereal Time
07:25:00
Azimuth
Unknown
Elevation
Unknown
Doppler factor
Unknown
Orbital elements
Apogee altitude
453.974 km
Perigee altitude
435.05 km
Semi-major axis
6,822.649 km
Eccentricity
0.00139
Inclination
97.3274°
RAAN
163.331°
Arg. of periapsis
79.9731°
True anomaly
280.1515°
Mean anomaly
280.3079°
Eccentric anomaly
280.22971°
Mean motion
3.85136 °/min
Orbital period
93.47 mins
BSTAR
0.00078734
Loading maneuver chart data...
Computing Atmospheric mass density...
Loading historical data...
Loading historical data...
Loading historical data...
Loading historical data...
Loading historical data...
Loading historical data...
Loading historical data...

Documentation

Showing up to 5 results
|